Regional Weather Roundup
Issued by NWS

Home | Current Version | Previous Version | Text Only | Print | Product List | Glossary On
Versions: 1 2 3 4 5 6 7 8 9 10 11 12 13 14 15 16 17 18 19 20 21 22 23 24 25 26 27 28 29 30 31 32 33 34 35 36 37 38 39 40 41 42 43 44 45 46 47 48 49 50
000
ASUS43 KTOP 201408
RWRKS

WEATHER ROUNDUP FOR KANSAS
NATIONAL WEATHER SERVICE GOODLAND KS
800 AM CST MON NOV 20 2017

NOTE:  "FAIR" INDICATES FEW OR NO CLOUDS BELOW 12,000 FEET WITH NO
SIGNIFICANT WEATHER AND/OR OBSTRUCTIONS TO VISIBILITY.

KSZ001>006-013>018-027>032-041>047-201500-
NORTHWEST KANSAS

CITY           SKY/WX    TMP DP  RH WIND       PRES   REMARKS
GOODLAND       CLOUDY    34  13  41 W10       29.81F WCI  26
HAYS           CLOUDY    27  20  75 W5        29.85R
HILL CITY      CLOUDY    27  21  78 W5        29.80F
RUSSELL        CLOUDY    30  21  69 S12       29.82F WCI  20
$$

KSZ061>065-074>080-084>089-201500-
SOUTHWEST KANSAS

CITY           SKY/WX    TMP DP  RH WIND       PRES   REMARKS
DODGE CITY     CLOUDY    30  17  58 SW9       29.86R
ELKHART        CLOUDY    42  18  38 W14       29.89R
GARDEN CITY    CLOUDY    25  18  74 CALM      29.85R
GREAT BEND     CLOUDY    34  20  56 SW5       29.87R
LIBERAL        CLOUDY    27  18  69 SW10      29.90R WCI  17
PRATT          CLEAR     34  20  56 S14       29.87F WCI  24
$$

KSZ066>073-081>083-090>101-201500-
SOUTHEAST KANSAS

CITY           SKY/WX    TMP DP  RH WIND       PRES   REMARKS
CHANUTE        CLEAR     41  29  62 S15       30.03F
COFFEYVILLE    CLEAR     43  30  60 S12       30.06F
HUTCHINSON     CLEAR     39  26  59 S15       29.88F WCI  31
MEDICINE LODGE   N/A     35  23  61 S10       29.92S WCI  27
NEWTON         CLEAR     41  25  53 S22       29.90F
PARSONS        CLEAR     40  30  67 S8        30.06F
WICHITA INTL   PTCLDY    38  28  67 S16       29.94F WCI  29
WICHITA JABRA  CLEAR     40  27  59 S15       29.93F WCI  32
WICHITA MCCONL CLEAR     40  25  54 S16       29.95F WCI  32
WINFIELD       CLEAR     43  29  57 S14       30.00F
$$

KSZ007>012-019>026-033>040-048>060-102>105-201500-
NORTHEAST KANSAS

CITY           SKY/WX    TMP DP  RH WIND       PRES   REMARKS
CONCORDIA      CLEAR     40  21  46 S14       29.81F WCI  32
EMPORIA        CLEAR     38  27  64 S12       29.94F WCI  30
LAWRENCE       CLEAR     41  29  62 SE8       29.95F
MANHATTAN      CLOUDY    43  26  51 SW13G20   29.87F
MARYSVILLE     CLEAR     41  27  56 SW8       29.83F
OLATHE IND     CLEAR     44  28  53 S16G23    29.97F
OLATHE EXE     CLEAR     40  29  64 S9        29.97F
SALINA         CLEAR     39  25  57 S8        29.88R
TOPEKA BILLARD CLEAR     42  28  57 S10       29.91F
TOPEKA FORBES  CLEAR     43  28  55 S13       29.92F
$$



USA.gov is the U.S. government's official web portal to all federal, state and local government web resources and services.